[[{"header":{"parameterUnit":"m.s-1","parameterCategory":1,"la1":30.2991,"la2":30.254,"lo1":-89.0895,"lo2":-89.0444,"dy":0.0017,"dx":0.0017,"nx":28,"ny":28,"refTime":"2023-10-13T03:00:00:Z","depth":0,"parameterNumber":2,"parameterNumberName":"U-component_of_WINDS"},"data":[0,0,0,0,0,0,0,0,0,0,0,0,0,0,0,0,0,0,0,0,0,0,0,0,0,0,0,0,0,0,0,0,0,0,0,0,0,0,0,0,0,0,0,0,0,0,0,0,0,0,0,0,0,0,0,0,0,0,3.1718,3.1718,0,3.1724,3.1724,3.1724,3.1709,3.1708,3.1708,3.1707,3.1717,3.1718,3.1718,0,0,0,0,0,0,0,0,0,0,0,0,0,3.17,3.17,3.1718,3.1718,3.1718,3.1724,3.1724,3.1724,3.1709,3.1708,3.1708,3.1707,3.1717,3.1718,3.1718,0,0,0,0,0,0,0,0,0,0,0,0,0,3.1707,3.17,3.1718,3.1711,3.171,3.1724,3.1724,3.1724,3.1709,3.1708,3.1708,3.1707,3.1716,3.1717,3.1718,3.174,0,0,3.1722,3.1722,0,0,0,0,0,0,0,0,3.1707,3.1708,3.1712,3.1711,3.1711,3.1715,3.1721,3.1729,3.1709,3.171,3.1707,3.1707,3.1717,3.1718,3.1721,3.174,3.1741,3.1722,3.1722,3.1723,3.1723,0,0,0,0,0,0,0,3.1706,3.1707,3.172,3.1712,3.1711,3.171,3.171,3.1723,3.1718,3.171,3.1708,3.1709,3.1717,3.172,3.1721,3.1741,3.1722,3.1723,3.1723,3.1724,3.1785,3.1786,0,0,0,0,0,0,3.1706,3.1707,3.172,3.172,3.1707,3.1711,3.1711,3.1714,3.1717,3.1717,3.171,3.1709,3.1718,3.172,3.1721,3.175,3.1723,3.1724,3.1725,3.1784,3.1785,3.1786,0,0,0,0,0,0,3.1705,3.1707,3.172,3.1714,3.1715,3.1712,3.1716,3.1715,3.1718,3.1717,3.1717,3.1714,3.1718,3.172,3.1736,3.175,3.1724,3.1725,3.1782,3.1784,3.1785,3.1806,0,0,0,0,0,0,3.1705,3.1707,3.1713,3.1714,3.1715,3.1733,3.1716,3.1715,3.1719,3.1718,3.1721,3.1721,3.1717,3.1735,3.1738,3.1751,3.1726,3.1781,3.1783,3.1785,3.1804,3.1808,3.1811,0,0,0,0,0,3.1704,3.1718,3.1713,3.1715,3.1722,3.1733,3.1734,3.1729,3.172,3.1728,3.1729,3.1721,3.1748,3.1737,3.174,3.1754,3.178,3.1783,3.1785,3.1802,3.1807,3.1811,0,0,0,0,0,0,3.1718,3.1717,3.1712,3.1726,3.173,3.1731,3.1739,3.1734,3.1741,3.1739,3.1734,3.1735,3.1754,3.1755,3.1742,3.1778,3.1763,3.1766,3.1776,3.178,3.1784,3.1783,3.1727,0,0,0,0,0,3.1722,3.173,3.1729,3.1742,3.1744,3.1742,3.1746,3.1743,3.1747,3.1748,3.175,3.1756,3.1767,3.1773,3.1783,3.1805,3.1808,3.1816,3.182,3.1823,3.1826,3.1843,3.1848,3.1793,3.1793,3.1793,0,0,3.1732,3.1732,3.1737,3.1744,3.1747,3.1758,3.1743,3.1753,3.1762,3.175,3.1767,3.1769,3.1776,3.1796,3.1806,3.1798,3.1842,3.1826,3.1828,3.1829,3.1846,3.1851,3.1856,3.1795,3.1794,3.1794,0,0,3.1754,3.1754,3.1766,3.177,3.1775,3.1775,3.1778,3.1781,3.1782,3.1799,3.1792,3.1804,3.182,3.1827,3.1833,3.1865,3.186,3.1868,3.1887,3.1904,3.1909,3.1913,3.1928,3.1933,3.1871,3.1871,3.1871,0,3.1765,3.1778,3.1773,3.1786,3.1791,3.1783,3.1798,3.1802,3.181,3.1816,3.1807,3.1833,3.1836,3.1861,3.1869,3.1873,3.188,3.1868,3.1908,3.1912,3.1916,3.193,3.1936,3.1872,3.1872,3.1872,3.1872,0,3.1794,3.1804,3.1814,3.1823,3.183,3.1843,3.1844,3.1852,3.185,3.1851,3.1872,3.1876,3.1889,3.1895,3.1891,3.1921,3.1917,3.1909,3.1894,3.1922,3.1936,3.1942,3.1874,3.1874,3.1873,3.1873,0,0,3.1821,3.1831,3.1835,3.1842,3.1849,3.1858,3.1874,3.1887,3.1896,3.1903,3.1919,3.1937,3.1931,3.1937,3.1936,3.195,3.1982,3.1941,3.1941,3.1951,3.202,3.2028,3.2034,3.1978,3.1979,3.198,3.2021,0,3.1845,3.1871,3.187,3.1895,3.1907,3.1903,3.1917,3.1926,3.1929,3.1942,3.1947,3.1961,3.195,3.1955,3.1969,3.1975,3.1996,3.1972,3.1996,3.1997,3.1996,3.204,3.2047,3.2085,3.2026,3.2027,3.2027,0,3.1875,3.1886,3.1913,3.1924,3.1929,3.1942,3.1957,3.1968,3.198,3.1982,3.1993,3.1991,3.2011,3.1997,3.2027,3.2011,3.2022,3.2027,3.2028,3.2031,3.2014,3.2047,3.2096,3.2103,3.2035,3.2035,3.2034,0,3.1896,3.1917,3.1937,3.1942,3.1955,3.1966,3.1972,3.1983,3.1993,3.2007,3.2014,3.203,3.2039,3.2054,3.2058,3.2046,3.209,3.2075,3.2096,3.2096,3.2105,3.2104,3.2159,3.2109,3.2109,3.2109,3.2108,0,3.1924,3.1941,3.1947,3.1959,3.1981,3.1982,3.2004,3.201,3.2021,3.2037,3.2035,3.205,3.2054,3.2072,3.2076,3.2104,3.2107,3.2112,3.2113,3.2113,3.2113,3.212,3.2119,3.211,3.211,3.2109,3.2109,0,3.1949,3.1953,3.1976,3.1988,3.1992,3.2008,3.202,3.2034,3.2039,3.2061,3.2066,3.2075,3.2097,3.2103,3.2128,3.2131,3.2165,3.2162,3.216,3.2161,3.2183,3.2182,3.2245,3.2255,3.2197,3.2197,3.2198,0,3.1966,3.198,3.1995,3.2006,3.2014,3.203,3.2042,3.2046,3.2058,3.2077,3.209,3.2111,3.2129,3.2165,3.2175,3.2196,3.2196,3.2217,3.2199,3.2201,3.22,3.22,3.2204,3.222,3.2221,3.2221,3.2222,0,3.1998,3.2001,3.2016,3.2035,3.2049,3.2063,3.2077,3.2087,3.2094,3.2109,3.2132,3.2145,3.2174,3.2197,3.222,3.223,3.2229,3.2228,3.2234,3.2235,3.2235,3.2239,3.2172,3.2226,3.2225,3.2225,3.2225,3.2225,3.2021,3.2035,3.205,3.207,3.2082,3.2097,3.2112,3.2122,3.214,3.2163,3.2166,3.2192,3.221,3.2241,3.2253,3.2276,3.227,3.2278,3.228,3.2283,3.2287,3.2231,3.2279,3.2279,3.2279,3.2279,3.2279,0,3.2055,3.2066,3.2084,3.2105,3.2122,3.212,3.2138,3.2153,3.2175,3.2192,3.2211,3.2241,3.2265,3.228,3.2305,3.2321,3.2322,3.2328,3.2328,3.2331,3.2288,3.2282,3.2328,3.2328,3.2328,3.2328,3.2328,3.2328,3.2074,3.21,3.2106,3.214,3.2152,3.2177,3.2188,3.2204,3.2218,3.2251,3.2272,3.2282,3.23,3.2328,3.2352,3.2356,3.2367,3.2374,3.2378,3.2338,3.2333,3.2328,3.2322,3.2376,3.2376,3.2419,3.242,3.242]},{"header":{"parameterUnit":"m.s-1","parameterCategory":1,"la1":30.2991,"la2":30.254,"lo1":-89.0895,"lo2":-89.0444,"dy":0.0017,"dx":0.0017,"nx":28,"ny":28,"refTime":"2023-10-13T03:00:00:Z","depth":0,"parameterNumber":3,"parameterNumberName":"V-component_of_WINDS"},"data":[0,0,0,0,0,0,0,0,0,0,0,0,0,0,0,0,0,0,0,0,0,0,0,0,0,0,0,0,0,0,0,0,0,0,0,0,0,0,0,0,0,0,0,0,0,0,0,0,0,0,0,0,0,0,0,0,0,0,-0.5888,-0.5888,0,-0.5877,-0.5877,-0.5877,-0.5889,-0.5889,-0.5889,-0.589,-0.5879,-0.5879,-0.5878,0,0,0,0,0,0,0,0,0,0,0,0,0,-0.5919,-0.5918,-0.5888,-0.5888,-0.5887,-0.5878,-0.5877,-0.5877,-0.5889,-0.5889,-0.589,-0.589,-0.588,-0.5879,-0.5878,0,0,0,0,0,0,0,0,0,0,0,0,0,-0.5907,-0.5918,-0.5888,-0.5892,-0.5892,-0.5878,-0.5877,-0.5877,-0.5888,-0.5889,-0.589,-0.589,-0.588,-0.5879,-0.5878,-0.5859,0,0,-0.5875,-0.5874,0,0,0,0,0,0,0,0,-0.5907,-0.5905,-0.5891,-0.5892,-0.5892,-0.5885,-0.5885,-0.5871,-0.5888,-0.589,-0.589,-0.5891,-0.5881,-0.588,-0.5876,-0.5858,-0.5858,-0.5875,-0.5874,-0.5874,-0.5873,0,0,0,0,0,0,0,-0.5908,-0.5906,-0.5884,-0.5891,-0.5891,-0.5895,-0.5894,-0.5882,-0.5882,-0.589,-0.5891,-0.5889,-0.5881,-0.5877,-0.5876,-0.5858,-0.5875,-0.5874,-0.5873,-0.5873,-0.5827,-0.5826,0,0,0,0,0,0,-0.5908,-0.5907,-0.5884,-0.5883,-0.5901,-0.5894,-0.5893,-0.5887,-0.5882,-0.5882,-0.5889,-0.589,-0.5879,-0.5877,-0.5876,-0.5855,-0.5874,-0.5873,-0.5872,-0.5827,-0.5827,-0.5826,0,0,0,0,0,0,-0.5909,-0.5906,-0.5884,-0.5895,-0.5893,-0.5893,-0.5886,-0.5886,-0.5882,-0.5881,-0.5881,-0.5885,-0.5879,-0.5877,-0.5864,-0.5855,-0.5872,-0.5871,-0.5828,-0.5827,-0.5826,-0.5812,0,0,0,0,0,0,-0.591,-0.5906,-0.5898,-0.5895,-0.5892,-0.5872,-0.5885,-0.5885,-0.5881,-0.5882,-0.5878,-0.5877,-0.588,-0.5865,-0.5863,-0.5854,-0.5871,-0.5829,-0.5828,-0.5826,-0.5814,-0.5811,-0.5809,0,0,0,0,0,-0.5911,-0.5894,-0.5898,-0.5895,-0.5882,-0.5871,-0.5869,-0.5872,-0.588,-0.5872,-0.5872,-0.5878,-0.5856,-0.5864,-0.5861,-0.5852,-0.5829,-0.5828,-0.5827,-0.5815,-0.5812,-0.5809,0,0,0,0,0,0,-0.5896,-0.5894,-0.5898,-0.5879,-0.5875,-0.5873,-0.5863,-0.5868,-0.5862,-0.5863,-0.5867,-0.5866,-0.5852,-0.585,-0.5859,-0.5835,-0.5844,-0.5842,-0.5836,-0.5833,-0.5831,-0.5832,-0.587,0,0,0,0,0,-0.589,-0.5881,-0.588,-0.5864,-0.5862,-0.5863,-0.5858,-0.5861,-0.5857,-0.5855,-0.5854,-0.585,-0.5843,-0.5838,-0.5831,-0.5814,-0.5814,-0.5806,-0.5804,-0.5802,-0.58,-0.5794,-0.5791,-0.5821,-0.5821,-0.5821,0,0,-0.5879,-0.5877,-0.587,-0.5861,-0.5858,-0.585,-0.5861,-0.5851,-0.5845,-0.5854,-0.5841,-0.584,-0.5837,-0.5822,-0.5815,-0.582,-0.5792,-0.58,-0.5799,-0.5798,-0.5792,-0.5789,-0.5786,-0.582,-0.5821,-0.5821,0,0,-0.5854,-0.585,-0.5838,-0.5836,-0.5832,-0.5833,-0.583,-0.5828,-0.5828,-0.5815,-0.5823,-0.5816,-0.5802,-0.58,-0.5797,-0.5775,-0.5781,-0.5773,-0.576,-0.5754,-0.5752,-0.575,-0.5743,-0.5741,-0.5771,-0.5771,-0.5771,0,-0.584,-0.5827,-0.5831,-0.5821,-0.5818,-0.5826,-0.5814,-0.5812,-0.5806,-0.5804,-0.5809,-0.5795,-0.5792,-0.5779,-0.5773,-0.577,-0.5768,-0.5773,-0.5752,-0.575,-0.5748,-0.5742,-0.5739,-0.577,-0.577,-0.577,-0.577,0,-0.5811,-0.5802,-0.5793,-0.5788,-0.5784,-0.5773,-0.5776,-0.5771,-0.5775,-0.5776,-0.5765,-0.5763,-0.5757,-0.5754,-0.5757,-0.5742,-0.5745,-0.5751,-0.5761,-0.5744,-0.5739,-0.5736,-0.5769,-0.5769,-0.5769,-0.577,0,0,-0.5775,-0.5774,-0.5771,-0.577,-0.5768,-0.5761,-0.5752,-0.5747,-0.5744,-0.574,-0.5733,-0.5723,-0.573,-0.5726,-0.573,-0.5724,-0.5709,-0.5731,-0.5731,-0.5728,-0.5694,-0.569,-0.5687,-0.5713,-0.5712,-0.5712,-0.5695,0,-0.5751,-0.5735,-0.574,-0.5724,-0.5717,-0.5726,-0.5719,-0.5717,-0.5718,-0.5714,-0.5715,-0.5709,-0.5717,-0.5716,-0.571,-0.5712,-0.5702,-0.5713,-0.5708,-0.5707,-0.5709,-0.5684,-0.5679,-0.5663,-0.5692,-0.5692,-0.5692,0,-0.5721,-0.5718,-0.5701,-0.5703,-0.57,-0.5693,-0.569,-0.5685,-0.5684,-0.5686,-0.5684,-0.5689,-0.5682,-0.5691,-0.5682,-0.5689,-0.5688,-0.5688,-0.5688,-0.5688,-0.5699,-0.5685,-0.5658,-0.5656,-0.5688,-0.5688,-0.5689,0,-0.5699,-0.569,-0.568,-0.5678,-0.5679,-0.5675,-0.5675,-0.5675,-0.5672,-0.567,-0.5669,-0.5665,-0.5663,-0.5661,-0.5666,-0.5672,-0.5657,-0.5666,-0.5659,-0.5659,-0.5655,-0.5655,-0.5629,-0.5652,-0.5652,-0.5652,-0.5653,0,-0.5672,-0.5662,-0.567,-0.5664,-0.5654,-0.566,-0.565,-0.5651,-0.5652,-0.5647,-0.5654,-0.565,-0.5656,-0.5652,-0.5656,-0.5649,-0.5647,-0.565,-0.5651,-0.5649,-0.5649,-0.5649,-0.565,-0.5652,-0.5652,-0.5652,-0.5652,0,-0.5645,-0.5649,-0.564,-0.5642,-0.5643,-0.5635,-0.5638,-0.5633,-0.5636,-0.563,-0.5629,-0.5634,-0.563,-0.5635,-0.5631,-0.5634,-0.5624,-0.5627,-0.5625,-0.5626,-0.5619,-0.562,-0.5591,-0.5588,-0.5613,-0.5613,-0.5612,0,-0.5628,-0.5621,-0.5624,-0.5622,-0.5622,-0.5617,-0.5616,-0.5622,-0.562,-0.562,-0.5616,-0.5613,-0.5611,-0.5605,-0.5608,-0.5606,-0.561,-0.56,-0.5609,-0.5609,-0.5611,-0.5612,-0.5612,-0.5598,-0.5598,-0.5597,-0.5597,0,-0.5599,-0.5602,-0.5599,-0.5598,-0.5596,-0.5595,-0.5594,-0.5592,-0.5599,-0.5596,-0.5593,-0.5592,-0.5589,-0.5587,-0.5586,-0.5588,-0.5594,-0.5594,-0.5593,-0.5591,-0.5591,-0.5593,-0.5621,-0.5595,-0.5595,-0.5595,-0.5595,-0.5595,-0.5578,-0.5573,-0.5575,-0.5572,-0.5573,-0.5573,-0.5569,-0.5572,-0.557,-0.5569,-0.5573,-0.5569,-0.5571,-0.5571,-0.5572,-0.557,-0.5574,-0.5571,-0.5571,-0.557,-0.557,-0.5591,-0.5569,-0.5569,-0.557,-0.557,-0.557,0,-0.555,-0.5553,-0.555,-0.555,-0.5548,-0.5555,-0.5556,-0.5554,-0.5551,-0.5552,-0.5551,-0.5548,-0.5547,-0.5551,-0.555,-0.5548,-0.5551,-0.5548,-0.5548,-0.5549,-0.5565,-0.5567,-0.5545,-0.5545,-0.5545,-0.5545,-0.5545,-0.5545,-0.5536,-0.5529,-0.5533,-0.5527,-0.5529,-0.5526,-0.5526,-0.5527,-0.5528,-0.5525,-0.5525,-0.5527,-0.553,-0.5531,-0.553,-0.5531,-0.5531,-0.5527,-0.553,-0.5545,-0.5547,-0.555,-0.5552,-0.5527,-0.5527,-0.5514,-0.5514,-0.5513]}]]